STARLINK-2066 (47673 NORAD) Tracking and Keplerian Element Data
This shows tracking and keplerian element data for the satellite.
Feedback or suggestion? Click here.
Element | Value |
Catalog | 47673 |
Name | STARLINK-2066 |
Epoch Orbit | 177 |
Epoch Day | 101.91668981 |
Epoch Year | 2021 |
RAAN | 188.9663 |
Inclination | 53.0474 |
Eccentricity | 0.0002147 |
Argument of Perigee | 33.4805 |
Mean Anonmoly | 21.2471 |
Mean Motion | 15.73249309 |
Decay Rate | -8.575E-05 |
L1 | 1 47673U 21012BF 21101.91668981 -.00008575 00000-0 -56591-4 0 9993 |
L2 | 2 47673 53.0474 188.9663 0002147 33.4805 21.2471 15.73249309 1775 |
Live tracking and technical data element details for STARLINK-2066 (NORAD 47673). STARLINK-2066 can be tracked NOW for your location showing map with azimuth and elevation plus other details from your city location.
Track the satellite on the map from your city or location and see movement details for azimuth, elevation, latitude, longitude, range, height, and movement on the map or in text.
IsCatalogInMostPopularTable: catalog: 47673, numindb: 19
Update: records affected: 1
GetName: 47673 STARLINK-2066
Hit Count: updated at: Tue, 13 Apr 2021 03:53:52 GMT